Location: Three Oaks Observatory
(31.1535°N, 83.5955°W)
Time: 03:08:27
(UTC-04:00)

FALCONSAT 3 - Visible Passes

Search period start: 21 October 2019 00:00
Search period end: 31 October 2019 00:00
Orbit: 454 x 457 km, 35.4° (Epoch: 20 October)

Date Brightness Start Highest point End Pass type
(mag) Time Alt. Az. Time Alt. Az. Time Alt. Az.
21 Oct ? 05:38:59 25° NE 05:38:59 25° NE 05:40:48 10° ENE visible
21 Oct ? 07:13:00 10° WNW 07:16:29 44° N 07:19:58 10° E visible
22 Oct ? 06:37:34 23° NW 06:39:22 42° N 06:42:50 10° ENE visible
23 Oct ? 06:02:28 41° NNE 06:02:28 41° NNE 06:05:42 10° ENE visible
24 Oct ? 05:27:24 18° ENE 05:27:24 18° ENE 05:28:34 10° ENE visible
24 Oct ? 07:01:04 13° WNW 07:04:12 81° NNE 07:07:49 10° ESE visible
25 Oct ? 06:26:01 42° WNW 06:27:05 74° NNE 06:30:42 10° ESE visible
26 Oct ? 05:51:00 42° E 05:51:00 42° E 05:53:35 10° E visible
27 Oct ? 05:16:02 13° E 05:16:02 13° E 05:16:26 10° E visible
27 Oct ? 06:49:43 20° W 06:51:37 34° SSW 06:54:55 10° SE visible
28 Oct ? 06:14:48 38° SSW 06:14:48 38° SSW 06:17:54 10° SE visible
29 Oct ? 05:39:56 17° SE 05:39:56 17° SE 05:40:52 10° SE visible
